User: anonymous   Login
Location: Unspecified
(0.0000°N, 0.0000°E)
Time: 16:54:20
(UTC+01:00)
Language:

ATLAS V CENTAUR R/B - Orbit

View from above orbital plane
View from above orbital plane
View from above satellite
View from above satellite

Ground track
Ground track

The orbit data is extracted from the following two-line orbital elements,

1 27500U 02038B   14330.87259152  .00009309  00000-0  18292-2 0   308
2 27500 017.8141 189.1436 6933293 128.6607 105.5195 02.73456505 99220
Epoch (UTC): 26 November 2014 20:56:31
Eccentricity: 0.6933293
inclination: 17.8141°
perigee height: 246 km
apogee height: 30199 km
right ascension of ascending node: 189.1436°
argument of perigee: 128.6607°
revolutions per day: 2.73456505
mean anomaly at epoch: 105.5195°
orbit number at epoch: 9922

The dashed part of the orbit path shows where the satellite is in the earth's shadow,  

DLR